Date,TemperatureHighF,TemperatureAvgF,TemperatureLowF,DewpointHighF,DewpointAvgF,DewpointLowF,HumidityHigh,HumidityAvg,HumidityLow,PressureMaxIn,PressureMinIn,WindSpeedMaxMPH,WindSpeedAvgMPH,GustSpeedMaxMPH,PrecipitationSumIn
2013-3-1,73.2,55.0,37.2,29.5,23.6,12.4,63,33,13,30.28,30.08,14,2,14,0.00
2013-3-2,66.8,52.7,38.5,29.8,27.6,24.1,58,39,24,30.41,30.24,15,2,15,0.00
2013-3-3,76.5,57.7,37.4,43.6,33.0,23.9,62,42,21,30.26,29.94,22,4,22,0.00
2013-3-4,87.1,66.0,46.4,54.2,46.8,39.4,93,56,20,29.94,29.69,17,3,17,0.00
2013-3-5,67.0,57.4,44.7,55.0,29.4,14.2,91,40,15,30.34,29.75,26,4,26,0.00
2013-3-6,64.5,50.2,37.2,28.0,19.7,14.7,47,31,16,30.43,30.21,14,2,14,0.00
2013-3-7,73.3,56.9,41.6,54.8,45.5,28.3,83,67,45,30.22,30.06,17,4,17,0.00
2013-3-8,68.3,63.0,59.4,64.2,59.2,53.3,95,87,78,30.11,29.96,17,4,17,0.04
2013-3-9,76.0,67.1,62.8,67.1,63.1,59.5,96,87,70,29.99,29.59,20,6,20,0.05
2013-3-10,68.7,61.7,49.9,63.1,42.0,31.4,95,52,27,30.11,29.60,17,3,18,0.42
2013-3-11,71.8,55.0,41.0,32.4,28.5,23.8,63,39,20,30.18,29.98,12,2,12,0.00
2013-3-12,80.3,60.4,42.5,42.8,31.1,24.0,55,36,16,30.19,30.04,15,2,15,0.00
2013-3-13,77.3,61.7,47.2,48.3,40.6,36.2,82,50,26,30.41,30.19,13,3,13,0.00
2013-3-14,78.3,62.5,47.1,54.6,46.7,36.3,89,60,30,30.36,30.19,16,3,16,0.00
2013-3-15,80.8,65.4,49.9,56.6,50.0,40.8,96,63,25,30.23,29.96,18,4,18,0.00
2013-3-16,84.5,67.7,53.2,61.4,56.0,49.5,96,70,30,29.99,29.71,20,4,20,0.00
2013-3-17,86.5,70.2,64.5,63.3,61.2,59.6,88,75,41,29.79,29.61,19,3,19,0.00
2013-3-18,96.6,78.3,62.5,66.4,47.4,31.1,96,43,11,29.88,29.68,17,4,17,0.00
2013-3-19,81.2,68.9,55.4,64.7,55.3,44.9,80,62,52,29.95,29.77,18,4,18,0.00
2013-3-20,73.2,63.9,56.6,62.9,51.4,43.2,85,66,35,30.19,29.91,26,6,26,0.00
2013-3-21,75.7,68.2,52.8,60.4,56.8,41.8,86,67,54,30.00,29.60,17,4,24,0.00
2013-3-22,87.1,69.6,64.5,66.7,62.9,54.7,96,81,38,29.69,29.57,16,4,16,0.00
2013-3-23,83.1,61.5,56.1,63.9,53.5,50.5,85,76,49,29.73,29.55,14,4,15,0.00
2013-3-24,66.9,54.5,45.5,58.6,31.6,21.5,83,45,21,30.14,29.66,8,3,24,0.00
2013-3-25,60.9,48.9,38.9,25.8,20.1,9.5,54,35,15,30.37,30.13,18,3,18,0.00
2013-3-26,66.9,52.8,38.7,28.9,22.1,18.7,51,32,16,30.49,30.27,12,2,12,0.00
2013-3-27,67.8,53.3,41.1,49.8,38.2,28.6,69,57,44,30.31,30.14,15,3,18,0.00
2013-3-28,69.5,63.4,58.0,58.8,55.3,50.0,84,75,66,30.18,30.09,13,3,13,0.00
2013-3-29,77.8,67.5,55.5,61.0,57.4,53.8,96,73,48,30.15,30.00,17,3,17,0.00
2013-3-30,84.5,71.6,63.6,64.4,61.5,59.5,90,73,45,30.07,29.85,13,3,13,0.00
2013-3-31,82.3,69.2,63.2,65.6,62.6,58.6,92,81,52,29.92,29.79,17,2,18,0.39